Location: ?????????
(44.2517°N, 135.2292°E)
Time: 15:45:00
(UTC+00:00)

ARIANE 6 FM1 Upper Stage - Pass Details

Date: 22 January 2026
Orbit: 522 x 609 km, 62.0° (Epoch: 11 February)

Event Time Altitude Azimuth Distance (km) Brightness Sun altitude
Rises 11:11:21 0° 252° (WSW) 2,700 7.0 -35.0°
Reaches altitude 10° 11:13:54 10° 266° (W) 1,796 6.0 -35.4°
Enters shadow 11:14:33 13° 272° (W) 1,594 5.7 -35.6°
